Showing default

ESEO, 43792

Orbit data source: Space-Track

ESEO, 43792 is a payload satellite owned by ESA (ESA) in SSO that was launched on Mon, 03 Dec 2018 UTC via an FALCON 9 launch vehicle from the Air Force Western Test Range (AFWTR). Payload-class satellites include a variety of spacecraft equipped with specific instruments for various scientific and technological missions. These include communications satellites like Starlink; space stations such as the ISS; scientific satellites like the Hubble; Earth observation satellites from companies like Planet Labs, Umbra, and HawkEye 360; GPS; miniature CubeSats for education and research; and military/defense satellites.

Loading next visibility...
Identifier
43792, 2018-099AL
Orbit
SSO
Country
Flag of ESAESA
Related business
Manufacturer
ESTEC/OHBI
Mission
Operational Civil Technology
Bus & Motor
ESEO, Unknown motor
Mass
120 kg wet, 120 kg dry
Launch date (UTC)
2018-12-03 (7 years ago)
Launch vehicle
FALCON 9
Launch site
Air Force Western Test Range (AFWTR)
Object type
Payload
Rocket body
Debris
Shape & HBR
Box, 0.3 m
Radar Cross Section
0.262 m², Medium (>0.1 m² and < 1m²)

Expand to show TLE details & history
Last TLE update: 16 hours ago

TLE from 16 hours ago
0 ESEO
1 43792U 18099AL  25347.08104124  .00003259  00000-0  24316-3 0  9991
2 43792  97.4221  27.2513 0011134 246.8220 113.1834 15.03477467383836
Epoch: 2025-12-13T01:56Z
TLE epoch observation values (Epoch: 2025-12-13T01:56:41.963Z)
Latitude
0.00004°
Longitude
-83.93699°
Altitude
562.298 km
Speed
7.579 km/s
True Right ascension
01h 49m 00s
True Declination
0° 00' 00"
Sunlit
Object was in full shadow at epoch
Visualization orbit readout
Latitude
Unknown
Longitude
Unknown
Altitude
Unknown
Speed
Unknown
Apparent Right ascension
Unknown
Apparent Declination
Unknown
Sunlit
N/A
Visualization observer readout
Local Sidereal Time
16:42:50
Azimuth
Unknown
Elevation
Unknown
Doppler factor
Unknown
Orbital elements
Apogee altitude
560.889 km
Perigee altitude
545.454 km
Semi-major axis
6,931.309 km
Eccentricity
0.00111
Inclination
97.4221°
RAAN
27.2513°
Arg. of periapsis
246.822°
True anomaly
113.30062°
Mean anomaly
113.1834°
Eccentric anomaly
113.24202°
Mean motion
3.76115 °/min
Orbital period
95.72 mins
BSTAR
0.00024316
Loading maneuver chart data...
Computing Atmospheric mass density...
Loading historical data...
Loading historical data...
Loading historical data...
Loading historical data...
Loading historical data...
Loading historical data...
Loading historical data...

Documentation

Showing up to 5 results
|